TimeEDT,TemperatureF,Dew PointF,Humidity,Sea Level PressureIn,VisibilityMPH,Wind Direction,Wind SpeedMPH,Gust SpeedMPH,PrecipitationIn,Events,Conditions,WindDirDegrees,DateUTC
12:17 AM,71.6,69.8,94,29.98,5.0,Calm,Calm,-,N/A,,Clear,0,2013-08-29 04:17:00
12:34 AM,71.6,69.8,94,29.97,5.0,Calm,Calm,-,N/A,,Clear,0,2013-08-29 04:34:00
12:54 AM,71.6,69.8,94,29.97,7.0,Calm,Calm,-,N/A,,Clear,0,2013-08-29 04:54:00
1:14 AM,71.6,69.8,94,29.97,7.0,Calm,Calm,-,N/A,,Clear,0,2013-08-29 05:14:00
1:34 AM,71.6,69.8,94,29.97,5.0,Calm,Calm,-,N/A,,Clear,0,2013-08-29 05:34:00
1:54 AM,71.6,69.8,94,29.97,5.0,Calm,Calm,-,N/A,,Clear,0,2013-08-29 05:54:00
2:14 AM,71.6,69.8,94,29.97,4.0,Calm,Calm,-,N/A,,Clear,0,2013-08-29 06:14:00
2:34 AM,69.8,69.8,100,29.97,4.0,Calm,Calm,-,N/A,,Clear,0,2013-08-29 06:34:00
2:54 AM,69.8,69.8,100,29.96,1.8,Calm,Calm,-,N/A,,Clear,0,2013-08-29 06:54:00
3:14 AM,69.8,68.0,94,29.96,2.5,Calm,Calm,-,N/A,,Clear,0,2013-08-29 07:14:00
3:36 AM,69.8,69.8,100,29.96,3.0,WNW,3.5,-,N/A,,Clear,300,2013-08-29 07:36:00
3:55 AM,69.8,68.0,94,29.96,3.0,NW,3.5,-,N/A,,Clear,320,2013-08-29 07:55:00
4:14 AM,69.8,69.8,100,29.96,4.0,Calm,Calm,-,N/A,,Clear,0,2013-08-29 08:14:00
4:34 AM,69.8,68.0,94,29.95,3.0,West,4.6,-,N/A,,Clear,260,2013-08-29 08:34:00
4:54 AM,69.8,68.0,94,29.95,4.0,Calm,Calm,-,N/A,,Clear,0,2013-08-29 08:54:00
5:14 AM,68.0,68.0,100,29.96,4.0,Calm,Calm,-,N/A,,Clear,0,2013-08-29 09:14:00
5:34 AM,68.0,66.2,94,29.96,4.0,Calm,Calm,-,N/A,,Clear,0,2013-08-29 09:34:00
5:54 AM,69.8,68.0,94,29.96,5.0,NNE,3.5,-,N/A,,Scattered Clouds,30,2013-08-29 09:54:00
6:14 AM,68.0,66.2,94,29.96,4.0,NW,3.5,-,N/A,,Scattered Clouds,320,2013-08-29 10:14:00
6:34 AM,69.8,66.2,88,29.97,5.0,West,8.1,-,N/A,,Scattered Clouds,280,2013-08-29 10:34:00
6:54 AM,68.0,66.2,94,29.97,4.0,Calm,Calm,-,N/A,,Mostly Cloudy,0,2013-08-29 10:54:00
7:15 AM,70.7,67.5,89,29.98,7.0,Calm,Calm,-,N/A,,Scattered Clouds,0,2013-08-29 11:15:00
7:35 AM,67.5,66.9,98,29.99,2.0,Calm,Calm,-,N/A,,Scattered Clouds,0,2013-08-29 11:35:00
7:55 AM,68.0,67.1,97,29.99,3.0,NW,3.5,-,N/A,,Scattered Clouds,310,2013-08-29 11:55:00
8:15 AM,71.4,68.5,91,29.99,5.0,Calm,Calm,-,N/A,,Mostly Cloudy,0,2013-08-29 12:15:00
8:35 AM,71.2,68.5,91,29.99,5.0,Calm,Calm,-,N/A,,Scattered Clouds,0,2013-08-29 12:35:00
8:55 AM,74.3,69.8,86,29.99,7.0,Calm,Calm,-,N/A,,Scattered Clouds,0,2013-08-29 12:55:00
9:15 AM,76.3,70.9,83,30.00,7.0,Calm,Calm,-,N/A,,Scattered Clouds,0,2013-08-29 13:15:00
9:35 AM,79.2,71.8,78,30.00,10.0,Calm,Calm,-,N/A,,Clear,0,2013-08-29 13:35:00
9:55 AM,81.0,72.3,75,30.00,10.0,Calm,Calm,-,N/A,,Clear,0,2013-08-29 13:55:00
10:15 AM,83.5,72.5,69,30.00,10.0,Calm,Calm,-,N/A,,Clear,0,2013-08-29 14:15:00
10:35 AM,84.4,71.8,66,30.00,10.0,WNW,5.8,-,N/A,,Clear,290,2013-08-29 14:35:00
10:55 AM,85.5,70.9,62,30.00,10.0,NW,4.6,-,N/A,,Clear,310,2013-08-29 14:55:00
11:15 AM,86.4,71.8,62,30.00,10.0,NW,6.9,-,N/A,,Clear,310,2013-08-29 15:15:00
11:35 AM,87.6,72.9,61,30.00,10.0,WNW,4.6,-,N/A,,Clear,300,2013-08-29 15:35:00
11:55 AM,87.6,70.5,57,30.00,10.0,North,8.1,17.3,N/A,,Clear,10,2013-08-29 15:55:00
12:15 PM,88.5,70.0,54,29.99,10.0,NW,9.2,-,N/A,,Scattered Clouds,320,2013-08-29 16:15:00
12:35 PM,86.7,69.8,57,29.99,10.0,WNW,6.9,-,N/A,,Scattered Clouds,300,2013-08-29 16:35:00
12:55 PM,87.8,69.8,55,29.99,10.0,WNW,8.1,-,N/A,,Scattered Clouds,300,2013-08-29 16:55:00
1:15 PM,90.0,69.3,50,29.98,10.0,NW,11.5,16.1,N/A,,Clear,320,2013-08-29 17:15:00
1:35 PM,90.5,69.6,50,29.98,10.0,WNW,10.4,16.1,N/A,,Clear,300,2013-08-29 17:35:00
1:55 PM,90.5,68.7,49,29.98,10.0,NW,10.4,-,N/A,,Clear,310,2013-08-29 17:55:00
2:15 PM,90.7,68.4,48,29.97,10.0,WNW,9.2,-,N/A,,Scattered Clouds,300,2013-08-29 18:15:00
2:35 PM,91.2,68.2,47,29.97,10.0,North,8.1,-,N/A,,Scattered Clouds,10,2013-08-29 18:35:00
2:55 PM,90.9,66.7,45,29.96,10.0,NW,12.7,18.4,N/A,,Clear,320,2013-08-29 18:55:00
3:15 PM,91.8,66.4,43,29.96,10.0,NNE,8.1,-,N/A,,Clear,20,2013-08-29 19:15:00
3:35 PM,91.4,65.1,42,29.95,10.0,NNW,6.9,-,N/A,,Clear,340,2013-08-29 19:35:00
3:55 PM,91.8,66.2,43,29.95,10.0,NNE,6.9,-,N/A,,Clear,30,2013-08-29 19:55:00
4:15 PM,91.9,67.1,44,29.94,10.0,North,5.8,-,N/A,,Clear,360,2013-08-29 20:15:00
4:35 PM,91.9,67.6,45,29.94,10.0,North,5.8,-,N/A,,Clear,360,2013-08-29 20:35:00
4:55 PM,91.6,66.7,44,29.94,10.0,NNE,4.6,-,N/A,,Clear,20,2013-08-29 20:55:00
5:15 PM,91.4,66.6,44,29.95,10.0,North,4.6,-,N/A,,Clear,10,2013-08-29 21:15:00
5:35 PM,91.4,67.3,45,29.95,10.0,NNW,3.5,-,N/A,,Clear,330,2013-08-29 21:35:00
5:55 PM,90.9,68.7,48,29.94,10.0,NNW,5.8,-,N/A,,Clear,330,2013-08-29 21:55:00
6:15 PM,90.0,68.5,49,29.94,10.0,WNW,10.4,-,N/A,,Clear,290,2013-08-29 22:15:00
6:35 PM,87.1,68.9,55,29.94,10.0,Calm,Calm,-,N/A,,Clear,0,2013-08-29 22:35:00
6:55 PM,87.8,70.3,56,29.94,10.0,WNW,6.9,-,N/A,,Clear,290,2013-08-29 22:55:00
7:15 PM,85.8,71.6,62,29.95,10.0,WNW,3.5,-,N/A,,Clear,290,2013-08-29 23:15:00
7:35 PM,84.0,71.2,65,29.95,10.0,WNW,8.1,-,N/A,,Clear,290,2013-08-29 23:35:00
7:55 PM,81.9,71.6,71,29.96,10.0,WNW,9.2,-,N/A,,Clear,290,2013-08-29 23:55:00
8:34 PM,80.6,71.6,74,29.99,10.0,ENE,4.6,-,N/A,,Clear,60,2013-08-30 00:34:00
9:14 PM,80.6,71.6,74,30.00,10.0,East,4.6,-,N/A,,Scattered Clouds,80,2013-08-30 01:14:00
9:34 PM,80.6,71.6,74,30.00,10.0,ENE,5.8,-,N/A,,Mostly Cloudy,60,2013-08-30 01:34:00
9:56 PM,80.6,71.6,74,30.01,10.0,NE,4.6,-,N/A,,Overcast,40,2013-08-30 01:56:00
10:14 PM,80.6,71.6,74,30.02,10.0,ENE,5.8,-,N/A,,Overcast,60,2013-08-30 02:14:00
10:34 PM,80.6,71.6,74,30.02,10.0,ENE,6.9,-,N/A,,Mostly Cloudy,60,2013-08-30 02:34:00
10:54 PM,80.6,71.6,74,30.02,10.0,NNE,6.9,-,N/A,,Mostly Cloudy,20,2013-08-30 02:54:00
11:14 PM,78.8,71.6,78,30.03,10.0,ENE,6.9,-,N/A,,Mostly Cloudy,60,2013-08-30 03:14:00
11:34 PM,78.8,71.6,78,30.03,10.0,NNE,6.9,-,N/A,Thunderstorm,Overcast,30,2013-08-30 03:34:00
11:55 PM,75.2,73.4,94,30.04,2.5,NE,6.9,-,0.05,Rain,Rain,50,2013-08-30 03:55:00